Matagami Airport
CYNM : now visible

Airfield :











YOU CAN JOIN US ON...

 
LOGIN :

Register | Disclaimer

   EN    FR    IT 

 









Legend :    VFR   Marginal VFR   IFR   Intensive IFR   Very Intensive IFR
Visi :
Ceiling :
>= 8 km
>= 3000ft
5 to 8 km
1000 to 3000 ft
1500m to 5 km
500 to 1000 ft
800 to 1500m
200 to 500 ft
< 800m
< 200 ft
Symbols :   Thunderstorms  Fog  Heavy snow  Heavy precipitations  Wind > 20 kt






- Airport Elevation : 918 ft
- IATA code : YNM


CYNM - Matagami

CURRENT METAR :
  • 230700Z AUTO 30009KT 4SM -SN OVC030 M20/M22 A2998 RMK SLP184

EXPIRED METARs :
  • 230639Z AUTO 30009KT 5SM -SN OVC036 M20/M22 A2998 RMK SLP182
  • 230607Z AUTO 30009KT 6SM -SN OVC050 M20/M22 A2996 RMK SLP180
  • 230521Z AUTO 29010KT 5SM -SN OVC036 M20/M22 A2995 RMK SLP178
  • 230500Z AUTO 30009KT 9SM -SN BKN048 OVC070 M20/M22 A2995 RMK SLP177

TAF N/A
CZUL FIR / North America



MET'MAP, your aeronautical weather chart ! - Copyright ORBIFLY December 2007 - Disclaimer

ORBIFLY MET'MAP TEAM :

Programming & Development : Alexandra Zaïnal
Concept & original design : Baudouin d'Aumeries
Assistance for programming : Marc-Olivier Méhu
Technical & hardware support : Manuel Goepfert

Contact : metmap@orbifly.com




SOURCES & CREDITS :

   NOAA       Earth
Advisory